This is the latest recevied weather packets stored in our database for station/object OK1PMP-6. If no packets are shown the sender has not sent any weather packets the latest 10 day(s).
| Time | Temp. | Humidity | Pressure | Rain* | Wind** | Luminosity | Snow |
|---|---|---|---|---|---|---|---|
| 1778240339 | 12.78° C | 74% | 1021.8 hPa | 0 mm | - | 242 W/m² | - |
| 1778239423 | 12.78° C | 78% | 1021.9 hPa | 0 mm | - | 215 W/m² | - |
| 1778238522 | 12.78° C | 75% | 1021.8 hPa | 0 mm | - | 174 W/m² | - |
| 1778237622 | 12.78° C | 76% | 1022 hPa | 0 mm | - | 374 W/m² | - |
| 1778236721 | 12.78° C | 77% | 1022.2 hPa | 0 mm | - | 329 W/m² | - |
| 1778235821 | 12.22° C | 79% | 1022 hPa | 0 mm | - | 166 W/m² | - |
| 1778234927 | 11.67° C | 80% | 1022.1 hPa | 0 mm | - | 186 W/m² | - |
| 1778234011 | 11.11° C | 82% | 1022.1 hPa | 0 mm | - | 131 W/m² | - |
| 1778233112 | 11.11° C | 81% | 1022.2 hPa | 0 mm | - | 132 W/m² | - |
| 1778232219 | 11.11° C | 81% | 1022 hPa | 0 mm | - | 135 W/m² | - |
| 1778231319 | 11.11° C | 81% | 1021.9 hPa | 0 mm | - | 171 W/m² | - |
| 1778230408 | 11.11° C | 84% | 1022 hPa | 0 mm | - | 165 W/m² | - |
| 1778229512 | 10.56° C | 83% | 1021.9 hPa | 0 mm | - | 145 W/m² | - |
| 1778228607 | 10.56° C | 83% | 1022 hPa | 0 mm | - | 124 W/m² | - |
| 1778227707 | 10.56° C | 84% | 1021.6 hPa | 0 mm | - | 94 W/m² | - |
| 1778226807 | 10.56° C | 84% | 1021.5 hPa | 0 mm | - | 121 W/m² | - |
| 1778225906 | 10° C | 85% | 1021.5 hPa | 0 mm | - | 108 W/m² | - |
| 1778225010 | 9.44° C | 86% | 1021.5 hPa | 0 mm | - | 126 W/m² | - |
| 1778224103 | 9.44° C | 87% | 1021.2 hPa | 0 mm | - | 95 W/m² | - |
| 1778223204 | 9.44° C | 86% | 1021.2 hPa | 0 mm | - | 72 W/m² | - |
| 1778222302 | 9.44° C | 86% | 1020.9 hPa | 0 mm | - | 55 W/m² | - |
| 1778221396 | 9.44° C | 86% | 1020.8 hPa | 0 mm | - | 82 W/m² | - |
| 1778220483 | 8.89° C | 87% | 1020.7 hPa | 0 mm | - | 91 W/m² | - |
| 1778219581 | 8.89° C | 88% | 1020.5 hPa | 0 mm | - | 73 W/m² | - |
| 1778218683 | 8.89° C | 88% | 1020.5 hPa | 0 mm | - | 50 W/m² | - |
* Rain latest hour (hover to see other rain measurements)
** Current wind speed in m/s (hover to see current wind gust speed)